Regional Weather Roundup
Issued by NWS Cleveland, OH

Home | Current Version | Previous Version | Graphics & Text | Print | Product List | Glossary On
Versions: 1 2 3 4 5 6 7 8 9 10 11 12 13 14 15 16 17 18 19 20 21 22 23 24 25 26 27 28 29 30 31 32 33 34 35 36 37 38 39 40 41 42 43 44 45 46 47 48 49 50
461
ASUS41 KCLE 262310
RWRCLE
OHIO REGIONAL WEATHER ROUNDUP
NATIONAL WEATHER SERVICE WILMINGTON, OH
700 PM EDT SAT MAY 26 2018

NOTE: "FAIR" INDICATES FEW OR NO CLOUDS BELOW 12,000 FEET WITH NO
SIGNIFICANT WEATHER AND/OR OBSTRUCTIONS TO VISIBILITY.

OHZ001>008-015>018-024>027-034-035-043-044-270000-
   NORTHWEST OHIO

CITY           SKY/WX    TMP DP  RH WIND       PRES   REMARKS
DEFIANCE       FAIR      75  65  70 NE9       29.78R
FINDLAY        FAIR      78  69  73 SE5       29.78F
TOLEDO EXPRESS LGT RAIN  78  68  71 W8        29.78S
TOLEDO EXEC    FAIR      78  65  63 S5        29.79S
LIMA           FAIR      76  68  76 S5        29.79F
$$

OHZ009>014-019>023-028>033-038-089-270000-
   NORTHEAST OHIO

CITY           SKY/WX    TMP DP  RH WIND       PRES   REMARKS
CLE-HOPKINS    LGT RAIN  70  64  81 CALM      29.82S
CLE-LAKEFRONT  LGT RAIN  69  62  78 SE7       29.79S
CUY CO. ARPT   PTSUNNY   72  66  83 S9        29.82R
LORAIN-ELYRIA  LGT RAIN  68  62  81 S6        29.81F
ASHTABULA      FAIR      71  70  96 SE3       29.84R
AKRON-CANTON   CLOUDY    73  66  78 SE10      29.84R THUNDER
WOOSTER        TSTM      67  66  97 CALM      29.87R FOG
MANSFIELD      LGT RAIN  69  66  90 NE9       29.84F
YOUNGSTOWN     PTSUNNY   76  63  64 S3        29.84R
$$

OHZ042-051>053-060>062-070>072-077>081-270000-
  SOUTHWEST OHIO

CITY           SKY/WX    TMP DP  RH WIND       PRES   REMARKS
CINC-COVINGTON PTSUNNY   77  67  71 S6        29.80F
CINC-LUNKEN    FAIR      76  72  87 N3        29.80F
HAMILTON       FAIR      81  73  76 CALM      29.80F
DAYTON         TSTM      69  68  96 NW12G31   29.82R VSB 1
WRIGHT-PAT AFB CLOUDY    72  67  83 S7        29.80F
DAYTON GENERAL FAIR      75  69  81 S8        29.80F
WILMINGTON     FAIR      71  69  93 S8        29.81F
$$

OHZ036-037-039>041-045>050-054>059-063>069-073>076-082>088-270000-
  CENTRAL AND SOUTHEAST OHIO

CITY           SKY/WX    TMP DP  RH WIND       PRES   REMARKS
COLUMBUS       LGT RAIN  70  32  24 NE8       29.82R
OSU AIRPORT    CLOUDY    70  68  93 E7        29.82F
BOLTON FIELD   LGT RAIN  70  68  94 W5        29.84R
RICKENBACK AFB FAIR      72  68  88 MISG      29.82R
NEWARK         LGT RAIN  74  69  85 SW3       29.82R
MARION         FAIR      73  67  81 N6        29.82S
LANCASTER      PTSUNNY   75  70  84 NW13G22   29.84R
ZANESVILLE     TSTM      70  66  87 S8        29.83F
NEW PHILLY     PTSUNNY   76  66  71 E7        29.83S
$$




USA.gov is the U.S. government's official web portal to all federal, state and local government web resources and services.